Overview Statistics Trail Chart Weather Telemetry Raw packets
 

This is the latest recevied weather packets stored in our database for station/object DL2GPS-3. If no packets are shown the sender has not sent any weather packets the latest 10 day(s).

<< 23 24 25 26 27 28 29 >>
Time Temp. Humidity Pressure Rain* Wind** Luminosity Snow
1788345354 23.33° C 50% 1025.3 hPa - - - -
1788344753 22.78° C 51% 1025.4 hPa - - - -
1788344152 22.78° C 51% 1025.4 hPa - - - -
1788343552 22.78° C 51% 1025.4 hPa - - - -
1788342950 22.78° C 50% 1025.4 hPa - - - -
1788342349 22.78° C 50% 1025.5 hPa - - - -
1788341748 22.22° C 53% 1025.4 hPa - - - -
1788341148 20.56° C 57% 1025.4 hPa - - - -
1788340547 22.22° C 52% 1025.3 hPa - - - -
1788339946 22.22° C 52% 1025.3 hPa - - - -
1788339345 22.22° C 53% 1025.5 hPa - - - -
1788338744 21.11° C 54% 1025.3 hPa - - - -
1788338143 23.33° C 50% 1025.2 hPa - - - -
1788337542 22.22° C 55% 1025.2 hPa - - - -
1788336942 22.22° C 55% 1025 hPa - - - -
1788336341 21.11° C 58% 1024.9 hPa - - - -
1788335740 20.56° C 62% 1025 hPa - - - -
1788335139 20.56° C 58% 1024.8 hPa - - - -
1788334538 23.33° C 54% 1024.8 hPa - - - -
1788333937 21.11° C 61% 1024.6 hPa - - - -
1788333336 21.67° C 57% 1024.5 hPa - - - -
1788332736 19.44° C 74% 1024.7 hPa - - - -
1788332135 17.78° C 79% 1024.8 hPa - - - -
1788331533 16.67° C 80% 1024.7 hPa - - - -
1788330932 17.22° C 76% 1024.6 hPa - - - -

* Rain since midnight (hover to see other rain measurements)
** Current wind speed in m/s (hover to see current wind gust speed)